Regional Weather Roundup
Issued by NWS

Home | Current Version | Previous Version | Graphics & Text | Print | Product List | Glossary On
Versions: 1 2 3 4 5 6 7 8 9 10 11 12 13 14 15 16 17 18 19 20 21 22 23 24 25 26 27 28 29 30 31 32 33 34 35 36 37 38 39 40 41 42 43 44 45 46 47 48 49 50
588
ASUS43 KLMK 062110
RWRKY
KENTUCKY REGIONAL WEATHER ROUNDUP
NATIONAL WEATHER SERVICE LOUISVILLE KY
400 PM EST SAT FEB 06 2016

NOTE "FAIR" INDICATES FEW OR NO CLOUDS BELOW 12,000 FEET
WITH NO SIGNIFICANT WEATHER AND/OR OBSTRUCTIONS TO VISIBILITY.

KYZ001>023-026-027-061>063-070>075-062200-
WESTERN AND SOUTH CENTRAL KENTUCKY

CITY           SKY/WX    TMP DP  RH WIND       PRES   REMARKS
PADUCAH        SUNNY     55  22  27 W12       30.26F
HENDERSON      SUNNY     54  25  32 W9        30.26S
OWENSBORO      SUNNY     53  28  38 CALM      30.27F
HOPKINSVILLE   SUNNY     52  20  28 W6        30.28F
BOWLING GREEN  MOSUNNY   53  21  28 SW13      30.28F
GLASGOW        SUNNY     52  22  30 W9G17     30.27F
$$

KYZ024-025-028>034-038-045-046-053-062200-
NORTH CENTRAL KENTUCKY

CITY           SKY/WX    TMP DP  RH WIND       PRES   REMARKS
LOUISVILLE/SDF MOSUNNY   52  23  32 W10       30.25F
LOUISVILLE/LOU SUNNY     51  25  36 W10       30.26F
FORT KNOX      SUNNY     52  25  35 SW13      30.24S
$$

KYZ035>037-039>044-047>052-055>060-089>105-062200-
NORTHEAST KENTUCKY

CITY           SKY/WX    TMP DP  RH WIND       PRES   REMARKS
LEXINGTON      CLOUDY    48  23  37 W9        30.25S
COVINGTON      NOT AVBL
FRANKFORT      SUNNY     49  22  34 W7        30.25S
$$

KYZ054-064>069-076>088-106>120-062200-
SOUTHEAST KENTUCKY

CITY           SKY/WX    TMP DP  RH WIND       PRES   REMARKS
JACKSON        CLOUDY    47  19  33 CALM      30.25S
LONDON         CLOUDY    47  18  31 W9        30.27S
SOMERSET       MOSUNNY   46  19  34 W6        30.29F
MIDDLESBORO    CLOUDY    45  21  38 S6        30.29F
MONTICELLO     PTCLDY    49  21  33 VRB5      30.30F
$$





USA.gov is the U.S. government's official web portal to all federal, state and local government web resources and services.